Location: Borovka
(49.7741°N, 14.5280°E)
Time: 09:36:07
(UTC+00:00)

LilacSat-2 - Pass Details

Date: 15 March 2026
Orbit: 412 x 424 km, 97.5° (Epoch: 20 April)

Event Time Altitude Azimuth Distance (km) Brightness Sun altitude
Rises 18:58:28 0° 202° (SSW) 2,391 ? -18.5°
Reaches altitude 10° 19:00:56 10° 222° (SW) 1,532 ? -18.9°
Maximum altitude 19:03:15 18° 267° (W) 1,148 ? -19.2°
Drops below altitude 10° 19:05:34 10° 312° (NW) 1,543 ? -19.6°
Sets 19:08:05 0° 332° (NNW) 2,416 ? -20.0°
